Flight Track Log - Related Links

Times and Time Zones

All times are in EDT time to prevent confusion due to time zone crossing. See the GJS3710 flight status page for this flight to view local times or setup timezone preferences in your user account.

Time Position Orientation Groundspeed Altitude Reporting Facility
EDT Latitude Longitude Course Direction KTS MPH feet Rate Location/Type
Sat 05:20:54 PM 39.8833 -104.5833 79° East 196 226 7,500  Level Denver TRACON
Sat 05:21:54 PM 39.9000 -104.5000 75° East 248 285 9,100 1,250 Climbing Denver TRACON
Sat 05:22:00 PM 39.9164 -104.2687 80° East  Level FlightAware Approximate
Sat 05:22:54 PM 39.9167 -104.4000 78° East 266 306 10,000  Level Denver TRACON
Sat 05:23:00 PM 39.9464 -104.1382 73° East  Level FlightAware Approximate
Sat 05:23:54 PM 39.9333 -104.3000 78° East 297 342 10,400  Level Denver TRACON
Sat 05:24:00 PM 39.9667 -104.0057 90° East  Level FlightAware Approximate
Sat 05:24:11 PM 39.9450 -104.2744 59° Northeast 298 343 10,500  Level Denver Center
Sat 05:25:00 PM 39.9917 -103.8749 79° East  Level FlightAware Approximate
Sat 05:25:12 PM 39.9722 -104.1481 74° East 334 384 11,400  Level Denver Center
Sat 05:26:00 PM 40.0199 -103.7444 79° East  Level FlightAware Approximate
Sat 05:26:14 PM 39.9858 -104.0178 82° East 361 415 13,600  Level Denver Center
Sat 05:27:16 PM 40.0019 -103.8847 81° East 371 427 16,100 2,244 Climbing Denver Center
Sat 05:28:17 PM 40.0258 -103.7419 78° East 378 435 18,200 1,707 Climbing Denver Center
Sat 05:29:19 PM 40.0494 -103.6017 78° East 387 445 19,600 1,355 Climbing Denver Center
Sat 05:30:21 PM 40.0728 -103.4531 78° East 413 475 21,000 1,415 Climbing Denver Center
Sat 05:31:22 PM 40.0969 -103.2989 78° East 428 493 22,500 1,415 Climbing Denver Center
Sat 05:32:24 PM 40.1236 -103.1419 77° East 438 504 23,900 1,355 Climbing Denver Center
Sat 05:33:26 PM 40.1492 -102.9822 78° East 444 511 25,300 1,268 Climbing Denver Center
Sat 05:34:27 PM 40.1736 -102.8192 79° East 452 520 26,500 1,122 Climbing Denver Center
Sat 05:35:29 PM 40.2006 -102.6478 78° East 461 531 27,600 1,065 Climbing Denver Center
Sat 05:36:31 PM 40.2242 -102.4886 79° East 465 535 28,700 1,122 Climbing Denver Center
Sat 05:37:32 PM 40.2528 -102.3017 79° East 469 540 29,900 976 Climbing Denver Center
Sat 05:38:34 PM 40.2767 -102.1403 79° East 473 544 30,700 829 Climbing Denver Center
Sat 05:39:35 PM 40.3053 -101.9497 79° East 479 551 31,600 829 Climbing Denver Center
Sat 05:40:37 PM 40.3303 -101.7839 79° East 485 558 32,400 919 Climbing Denver Center
Sat 05:41:39 PM 40.3592 -101.5903 79° East 486 559 33,500 1,073 Climbing Denver Center
Sat 05:42:40 PM 40.3836 -101.4297 79° East 473 544 34,600 1,171 Climbing Denver Center
Sat 05:43:42 PM 40.4092 -101.2453 80° East 462 532 35,900 919 Climbing Denver Center
Sat 05:44:44 PM 40.4303 -101.0875 80° East 461 531 36,500 537 Climbing Denver Center
Sat 05:45:45 PM 40.4492 -100.9556 79° East 463 533 37,000 244 Climbing Denver Center
Sat 05:46:47 PM 40.4914 -100.7483 75° East 465 535 37,000  Level Denver Center
Sat 05:47:48 PM 40.5244 -100.5956 74° East 461 531 37,000  Level Denver Center
Sat 05:48:50 PM 40.5622 -100.4167 74° East 459 528 37,000  Level Denver Center
Sat 05:49:52 PM 40.5947 -100.2642 74° East 456 525 37,000  Level Denver Center
Sat 05:50:53 PM 40.6314 -100.0858 75° East 455 524 37,000  Level Denver Center
Sat 05:52:07 PM 40.6625 -99.9353 75° East 448 516 37,000 -221 Level Denver Center
Sat 05:53:09 PM 40.7061 -99.7275 74° East 447 514 36,500 -732 Descending Denver Center
Sat 05:54:10 PM 40.7381 -99.5675 75° East 451 519 35,500 -732 Descending Denver Center
Sat 05:55:12 PM 40.7700 -99.4103 75° East 447 514 35,000 -244 Descending Denver Center
Sat 05:56:13 PM 40.8011 -99.2533 75° East 443 510 35,000  Level Denver Center
Sat 05:57:15 PM 40.8261 -99.1278 75° East 445 512 35,000  Level Denver Center
Sat 05:57:37 PM 40.8467 -99.0236 75° East 449 517 35,000  Level Minneapolis Center
Sat 05:58:38 PM 40.8781 -98.8622 76° East 453 521 35,000 -341 Level Minneapolis Center
Sat 05:59:40 PM 40.9086 -98.7006 76° East 455 524 34,300 -976 Descending Minneapolis Center
Sat 06:00:41 PM 40.9406 -98.5433 75° East 446 513 33,000 -1,254 Descending Minneapolis Center
Sat 06:01:54 PM 40.9725 -98.3703 76° East 441 507 31,500 -1,422 Descending Minneapolis Center
Sat 06:02:56 PM 41.0194 -98.1797 72° East 453 521 29,800 -1,659 Descending Minneapolis Center
Sat 06:03:57 PM 41.0622 -98.0233 70° East 455 524 28,100 -1,902 Descending Minneapolis Center
Sat 06:04:59 PM 41.1014 -97.8783 70° East 430 495 25,900 -2,146 Descending Minneapolis Center
Sat 06:06:00 PM 41.1378 -97.7331 72° East 418 481 23,700 -2,066 Descending Minneapolis Center
Sat 06:07:01 PM 41.1764 -97.5892 70° East 415 478 21,700 -1,854 Descending Minneapolis Center
Sat 06:08:03 PM 41.2131 -97.4525 70° East 400 460 19,900 -1,854 Descending Minneapolis Center
Sat 06:09:04 PM 41.2514 -97.3044 71° East 385 443 17,900 -1,756 Descending Minneapolis Center
Sat 06:10:06 PM 41.2847 -97.1711 72° East 381 438 16,300 -1,610 Descending Minneapolis Center
Sat 06:11:07 PM 41.3183 -97.0417 71° East 375 432 14,600 -1,880 Descending Minneapolis Center
Sat 06:11:29 PM 41.3203 -96.9875 87° East 363 418 13,700 -1,548 Descending Minneapolis Center
Sat 06:12:09 PM 41.3506 -96.9161 61° Northeast 364 419 13,000 -1,582 Descending Minneapolis Center
Sat 06:13:00 PM 41.3428 -96.7964 95° East 335 386 11,300 -1,554 Descending Minneapolis Center
Sat 06:14:01 PM 41.3256 -96.6817 101° East 310 357 10,100 -1,082 Descending Minneapolis Center
Sat 06:15:02 PM 41.3094 -96.5864 103° East 261 300 9,100 -1,240 Descending Minneapolis Center
Sat 06:16:02 PM 41.2958 -96.4964 101° East 247 284 7,600 -1,785 Descending Minneapolis Center
Sat 06:17:03 PM 41.2797 -96.4039 103° East 249 287 5,500 -1,686 Descending Minneapolis Center
Sat 06:18:03 PM 41.2656 -96.3139 102° East 251 289 4,200 -744 Descending Minneapolis Center
Sat 06:19:04 PM 41.2494 -96.2214 103° East 255 293 4,000 -158 Descending Minneapolis Center
Sat 06:19:19 PM 41.2508 -96.2064 83° East 252 290 4,000  Level Minneapolis Center
Sat 06:20:05 PM 41.2250 -96.1328 115° Southeast 249 287 4,000 -98 Level Minneapolis Center
Sat 06:20:20 PM 41.2253 -96.1217 88° East 251 289 3,900 -900 Descending Minneapolis Center
Sat 06:21:05 PM 41.1889 -96.0619 129° Southeast 217 250 3,100 -871 Descending Minneapolis Center
Sat 06:21:22 PM 41.1867 -96.0558 116° Southeast 238 274 3,000 -109 Descending Minneapolis Center
Sat 06:22:00 PM 41.1536 -96.0022 129° Southeast 226 260 3,000  Level Minneapolis Center
Sat 06:22:23 PM 41.1414 -95.9756 121° Southeast 230 265 3,000  Level Minneapolis Center
Sat 06:23:00 PM 41.1158 -95.9347 130° Southeast 233 268 3,000  Level Minneapolis Center
Sat 06:23:24 PM 41.1022 -95.9081 124° Southeast 231 266 3,000  Level Minneapolis Center
Sat 06:23:55 PM 41.0822 -95.8694 124° Southeast 233 268 3,000 -97 Level Minneapolis Center
Sat 06:24:26 PM 41.0644 -95.8411 130° Southeast 230 265 2,900  Descending Minneapolis Center
Sat 06:25:02 PM 41.0439 -95.7992 123° Southeast 225 259 3,000 98 Climbing Minneapolis Center
Sat 06:25:27 PM 41.0447 -95.7719 88° East 224 258 3,000  Level Minneapolis Center
Sat 06:25:56 PM 41.0631 -95.7389 54° Northeast 197 227 3,000  Level Minneapolis Center
Sat 06:26:29 PM 41.0803 -95.7178 43° Northeast 209 241 3,000  Level Minneapolis Center
Sat 06:26:51 PM 41.1097 -95.7197 357° North 198 228 3,000  Level Minneapolis Center
Sat 06:27:30 PM 41.1319 -95.7342 334° Northwest 198 228 3,000  Level Minneapolis Center
Sat 06:27:51 PM 41.1539 -95.7531 327° Northwest 177 204 3,000  Level Minneapolis Center
Sat 06:28:32 PM 41.1725 -95.7708 324° Northwest 187 215 3,000  Level Minneapolis Center
Sat 06:28:52 PM 41.1900 -95.7906 320° Northwest 166 191 3,000 -98 Level Minneapolis Center
Sat 06:29:33 PM 41.2164 -95.8131 327° Northwest 173 199 2,900 -358 Descending Minneapolis Center
Sat 06:29:59 PM 41.2281 -95.8275 317° Northwest 133 153 2,600 -677 Descending Minneapolis Center
Sat 06:30:35 PM 41.2461 -95.8419 329° Northwest 155 178 2,200 -778 Descending Minneapolis Center
Sat 06:30:53 PM 41.2547 -95.8522 318° Northwest 123 142 1,900 -689 Descending Minneapolis Center
Sat 06:31:36 PM 41.2736 -95.8678 328° Northwest 137 158 1,500 -689 Descending Minneapolis Center
Sat 06:31:54 PM 41.2839 -95.8819 314° West 127 146 1,200 -484 Descending Minneapolis Center
Sat 06:32:38 PM 41.2983 -95.8919 333° Northwest 132 152 1,000 -273 Descending Minneapolis Center

Login

Don't have an account? Register now (free) for customized features, flight alerts, and more!